Погода в Степном

Россия / Челябинская область     54°04′40″N   60°24′16″E
темп.,
°C
ветер,
м/с
пор.,
м/с
влажн.,
%
обл.,
%
осадки,
мм/ч
давл.,
гПа
погр.,
м
11 апреля, вс
вс1123:00+1ю2294100 0.0 103830
02:000ю239413 0.0 103843
05:00−1ю379589 0.0 1038164
08:000юз4899100 0.0 1039328
11:00+4ююз4810085 0.0 1038341
14:00+7ююз578731 0.0 1037453
17:00+7юз588622 0.0 1036418
20:00+3юз379325 0.0 1037127
12 апреля, пн
пн1223:00+1юз38907 0.0 1037136
02:00+1юз388511 0.0 1036116
05:00+1юз36855 0.0 103686
08:00+3зюз248312 0.0 103696
11:00+9ссз227566 0.0 1036273
14:00+13всв346467 0.0 1035642
17:00+13всв4663100 0.0 1036727
20:00+9св3688100 0.0 1037106
13 апреля, вт
вт1323:00+8св379694 0.0 1038179
02:00+7всв259296 0.0 1039163
05:00+5св348713 0.0 104082
08:00+6всв24865 0.0 1040153
11:00+10в33685 0.0 1040588
14:00+12вюв33555 0.0 1039895
17:00+13юв22520 0.0 10371010
20:00+10ююв22673 0.0 103710
14 апреля, ср
ср1423:00+8ююв22750 0.0 103614
02:00+7ю22820 0.0 103516
05:00+5юз22875 0.0 103513
08:00+7юз23835 0.0 103489
11:00+12ююз22615 0.0 1033465
14:00+15ю21465 0.0 1031845
17:00+16ю21405 0.0 1029879
20:00+12ююв22535 0.0 102814
15 апреля, чт
чт1523:00+9ююз22595 0.0 102813
02:00+8юз22675 0.0 102711
05:00+6зюз22725 0.0 102610
08:00+8юз22675 0.0 102675
11:00+13ююз22455 0.0 1024427
14:00+16ююз223260 0.0 1022880
17:00+17ююз222943 0.0 10201060
20:00+13ююз22435 0.0 101913